Location: ?????
(55.8833°N, 37.6500°E)
Time: 02:29:32
(UTC+00:00)

STARLINK-1017 - Pass Details

Date: 27 February 2020
Orbit: 549 x 551 km, 53.0° (Epoch: 05 April)

Event Time Altitude Azimuth Distance (km) Brightness Sun altitude
Rises 16:59:17 0° 269° (W) 2,724 8.7 -17.7°
Reaches altitude 10° 17:01:32 10° 265° (W) 1,830 7.4 -18.0°
Maximum altitude 17:05:36 56° 188° (S) 662 3.9 -18.5°
Enters shadow 17:06:41 41° 136° (SE) 803 4.0 -18.7°
